Time,TemperatureF,DewpointF,PressureIn,WindDirection,WindDirectionDegrees,WindSpeedMPH,WindSpeedGustMPH,Humidity,HourlyPrecipIn,Conditions,Clouds,dailyrainin,SoftwareType,DateUTC
2013-01-25 00:02:00,41.0,22.0,29.96,WSW,245,18.0,26.0,46,0.00,,,0.00,,2013-01-25 07:02:00,
2013-01-25 00:11:00,41.0,22.0,29.96,WSW,245,18.0,26.0,46,0.00,,,0.00,,2013-01-25 07:11:00,
2013-01-25 00:21:00,41.0,22.0,29.96,WSW,245,18.0,26.0,46,0.00,,,0.00,,2013-01-25 07:21:00,
2013-01-25 00:31:00,40.0,21.0,29.98,SW,220,12.0,24.0,46,0.00,,,0.00,,2013-01-25 07:31:00,
2013-01-25 00:42:00,40.0,21.0,29.98,SW,220,12.0,24.0,46,0.00,,,0.00,,2013-01-25 07:42:00,
2013-01-25 00:52:00,40.0,22.0,29.96,WSW,237,15.0,28.0,48,0.00,,,0.00,,2013-01-25 07:52:00,
2013-01-25 01:01:00,40.0,23.0,29.97,WSW,241,10.0,32.0,51,0.00,,,0.00,,2013-01-25 08:01:00,
2013-01-25 01:11:00,39.0,23.0,30.00,SW,233,10.0,20.0,52,0.00,,,0.00,,2013-01-25 08:11:00,
2013-01-25 01:21:00,39.0,23.0,30.00,SW,233,10.0,20.0,52,0.00,,,0.00,,2013-01-25 08:21:00,
2013-01-25 01:32:00,39.0,22.0,30.00,WNW,283,16.0,20.0,50,0.00,,,0.00,,2013-01-25 08:32:00,
2013-01-25 01:41:00,39.0,22.0,30.00,WNW,283,16.0,20.0,50,0.00,,,0.00,,2013-01-25 08:41:00,
2013-01-25 01:52:00,39.0,21.0,30.00,WSW,248,9.0,17.0,49,0.00,,,0.00,,2013-01-25 08:52:00,
2013-01-25 02:01:00,39.0,21.0,30.00,West,262,9.0,14.0,49,0.00,,,0.00,,2013-01-25 09:01:00,
2013-01-25 02:11:00,39.0,21.0,30.00,West,262,9.0,14.0,49,0.00,,,0.00,,2013-01-25 09:11:00,
2013-01-25 02:21:00,39.0,21.0,29.99,WSW,245,8.0,13.0,49,0.00,,,0.00,,2013-01-25 09:21:00,
2013-01-25 02:31:00,39.0,21.0,29.99,WSW,245,8.0,13.0,49,0.00,,,0.00,,2013-01-25 09:31:00,
2013-01-25 02:41:00,39.0,21.0,29.99,WSW,245,8.0,13.0,49,0.00,,,0.00,,2013-01-25 09:41:00,
2013-01-25 02:51:00,40.0,20.0,29.98,SW,231,11.0,20.0,44,0.00,,,0.00,,2013-01-25 09:51:00,
2013-01-25 03:02:00,40.0,20.0,29.98,SW,231,11.0,20.0,44,0.00,,,0.00,,2013-01-25 10:02:00,
2013-01-25 03:12:00,40.0,20.0,29.99,SSW,197,10.0,18.0,44,0.00,,,0.00,,2013-01-25 10:12:00,
2013-01-25 03:21:00,40.0,20.0,29.99,SSW,197,10.0,18.0,44,0.00,,,0.00,,2013-01-25 10:21:00,
2013-01-25 03:32:00,40.0,20.0,29.99,WSW,258,7.0,20.0,44,0.00,,,0.00,,2013-01-25 10:32:00,
2013-01-25 03:42:00,40.0,20.0,29.99,WSW,258,7.0,20.0,44,0.00,,,0.00,,2013-01-25 10:42:00,
2013-01-25 03:52:00,40.0,20.0,30.03,West,259,9.0,18.0,44,0.00,,,0.00,,2013-01-25 10:52:00,
2013-01-25 04:02:00,40.0,20.0,30.03,West,259,9.0,18.0,44,0.00,,,0.00,,2013-01-25 11:02:00,
2013-01-25 04:11:00,40.0,20.0,30.03,West,259,9.0,18.0,44,0.00,,,0.00,,2013-01-25 11:11:00,
2013-01-25 04:22:00,40.0,19.0,30.01,WSW,242,12.0,18.0,42,0.00,,,0.00,,2013-01-25 11:22:00,
2013-01-25 04:33:00,40.0,19.0,30.01,WSW,242,10.0,20.0,42,0.00,,,0.00,,2013-01-25 11:33:00,
2013-01-25 04:42:00,40.0,19.0,30.01,WSW,242,10.0,20.0,42,0.00,,,0.00,,2013-01-25 11:42:00,
2013-01-25 04:52:00,39.0,18.0,30.04,WNW,283,8.0,14.0,43,0.00,,,0.00,,2013-01-25 11:52:00,
2013-01-25 05:02:00,39.0,18.0,30.04,WNW,283,8.0,14.0,43,0.00,,,0.00,,2013-01-25 12:02:00,
2013-01-25 05:11:00,39.0,18.0,30.04,WNW,283,8.0,14.0,43,0.00,,,0.00,,2013-01-25 12:11:00,
2013-01-25 05:22:00,40.0,18.0,30.04,WSW,258,9.0,21.0,41,0.00,,,0.00,,2013-01-25 12:22:00,
2013-01-25 05:32:00,39.0,18.0,30.04,NW,312,7.0,20.0,42,0.00,,,0.00,,2013-01-25 12:32:00,
2013-01-25 05:42:00,39.0,18.0,30.04,NW,312,7.0,20.0,42,0.00,,,0.00,,2013-01-25 12:42:00,
2013-01-25 05:53:00,39.0,19.0,30.06,SW,231,6.0,14.0,44,0.00,,,0.00,,2013-01-25 12:53:00,
2013-01-25 06:02:00,39.0,19.0,30.06,West,269,8.0,20.0,44,0.00,,,0.00,,2013-01-25 13:02:00,
2013-01-25 06:11:00,39.0,19.0,30.06,West,269,8.0,20.0,44,0.00,,,0.00,,2013-01-25 13:11:00,
2013-01-25 06:22:00,39.0,19.0,30.06,WSW,249,8.0,18.0,45,0.00,,,0.00,,2013-01-25 13:22:00,
2013-01-25 06:32:00,39.0,20.0,30.06,West,268,12.0,20.0,46,0.00,,,0.00,,2013-01-25 13:32:00,
2013-01-25 06:42:00,39.0,20.0,30.06,West,268,12.0,20.0,46,0.00,,,0.00,,2013-01-25 13:42:00,
2013-01-25 06:52:00,39.0,20.0,30.06,West,261,15.0,25.0,47,0.00,,,0.00,,2013-01-25 13:52:00,
2013-01-25 07:03:00,39.0,20.0,30.06,WSW,247,13.0,25.0,47,0.00,,,0.00,,2013-01-25 14:03:00,
2013-01-25 07:12:00,39.0,20.0,30.06,WSW,247,13.0,25.0,47,0.00,,,0.00,,2013-01-25 14:12:00,
2013-01-25 07:22:00,39.0,21.0,30.07,West,266,10.0,18.0,48,0.00,,,0.00,,2013-01-25 14:22:00,
2013-01-25 07:32:00,39.0,20.0,30.07,SW,220,10.0,20.0,47,0.00,,,0.00,,2013-01-25 14:32:00,
2013-01-25 07:42:00,39.0,20.0,30.07,SW,220,10.0,20.0,47,0.00,,,0.00,,2013-01-25 14:42:00,
2013-01-25 07:53:00,39.0,20.0,30.07,WSW,240,8.0,13.0,47,0.00,,,0.00,,2013-01-25 14:53:00,
2013-01-25 08:02:00,39.0,21.0,30.07,WNW,283,12.0,20.0,48,0.00,,,0.00,,2013-01-25 15:02:00,
2013-01-25 08:12:00,39.0,21.0,30.07,WNW,283,12.0,20.0,48,0.00,,,0.00,,2013-01-25 15:12:00,
2013-01-25 08:22:00,40.0,20.0,30.05,West,273,9.0,18.0,45,0.00,,,0.00,,2013-01-25 15:22:00,
2013-01-25 08:32:00,41.0,21.0,30.05,SW,232,12.0,20.0,45,0.00,,,0.00,,2013-01-25 15:32:00,
2013-01-25 08:42:00,41.0,21.0,30.05,SW,232,12.0,20.0,45,0.00,,,0.00,,2013-01-25 15:42:00,
2013-01-25 08:53:00,42.0,21.0,30.02,West,261,10.0,20.0,42,0.00,,,0.00,,2013-01-25 15:53:00,
2013-01-25 09:03:00,42.0,20.0,30.02,WSW,245,14.0,21.0,41,0.00,,,0.00,,2013-01-25 16:03:00,
2013-01-25 09:12:00,42.0,20.0,30.02,WSW,245,14.0,21.0,41,0.00,,,0.00,,2013-01-25 16:12:00,
2013-01-25 09:22:00,43.0,21.0,30.01,WSW,243,14.0,21.0,41,0.00,,,0.00,,2013-01-25 16:22:00,
2013-01-25 09:32:00,43.0,21.0,30.01,SW,227,12.0,24.0,41,0.00,,,0.00,,2013-01-25 16:32:00,
2013-01-25 09:42:00,43.0,21.0,30.01,SW,227,12.0,24.0,41,0.00,,,0.00,,2013-01-25 16:42:00,
2013-01-25 09:53:00,43.0,21.0,30.01,SW,227,12.0,24.0,41,0.00,,,0.00,,2013-01-25 16:53:00,
2013-01-25 10:02:00,44.0,21.0,29.99,WSW,249,13.0,25.0,39,0.00,,,0.00,,2013-01-25 17:02:00,
2013-01-25 10:12:00,44.0,21.0,29.99,WSW,249,13.0,25.0,39,0.00,,,0.00,,2013-01-25 17:12:00,
2013-01-25 10:22:00,45.0,21.0,29.97,WSW,247,11.0,26.0,38,0.00,,,0.00,,2013-01-25 17:22:00,
2013-01-25 10:32:00,45.0,21.0,29.97,WSW,243,14.0,20.0,38,0.00,,,0.00,,2013-01-25 17:32:00,
2013-01-25 10:42:00,45.0,21.0,29.97,WSW,243,14.0,20.0,38,0.00,,,0.00,,2013-01-25 17:42:00,
2013-01-25 10:53:00,46.0,21.0,29.96,West,266,16.0,26.0,37,0.00,,,0.00,,2013-01-25 17:53:00,
2013-01-25 11:02:00,46.0,21.0,29.96,SW,232,14.0,26.0,37,0.00,,,0.00,,2013-01-25 18:02:00,
2013-01-25 11:12:00,46.0,21.0,29.96,SW,232,14.0,26.0,37,0.00,,,0.00,,2013-01-25 18:12:00,
2013-01-25 11:23:00,46.0,21.0,29.95,WSW,249,16.0,26.0,37,0.00,,,0.00,,2013-01-25 18:23:00,
2013-01-25 11:32:00,46.0,22.0,29.95,SW,233,19.0,30.0,38,0.00,,,0.00,,2013-01-25 18:32:00,
2013-01-25 11:42:00,46.0,22.0,29.95,SW,233,19.0,30.0,38,0.00,,,0.00,,2013-01-25 18:42:00,
2013-01-25 11:52:00,46.0,22.0,29.95,SW,235,19.0,31.0,38,0.00,,,0.00,,2013-01-25 18:52:00,
2013-01-25 12:02:00,47.0,21.0,29.95,WSW,251,16.0,28.0,36,0.00,,,0.00,,2013-01-25 19:02:00,
2013-01-25 12:12:00,47.0,21.0,29.95,WSW,251,16.0,28.0,36,0.00,,,0.00,,2013-01-25 19:12:00,
2013-01-25 12:22:00,47.0,22.0,29.93,WSW,244,16.0,26.0,37,0.00,,,0.00,,2013-01-25 19:22:00,
2013-01-25 12:32:00,48.0,21.0,29.93,SW,231,15.0,26.0,34,0.00,,,0.00,,2013-01-25 19:32:00,
2013-01-25 12:42:00,48.0,21.0,29.93,SW,231,15.0,26.0,34,0.00,,,0.00,,2013-01-25 19:42:00,
2013-01-25 12:52:00,49.0,22.0,29.92,WSW,250,13.0,22.0,34,0.00,,,0.00,,2013-01-25 19:52:00,
2013-01-25 13:03:00,49.0,21.0,29.92,WSW,251,17.0,25.0,33,0.00,,,0.00,,2013-01-25 20:03:00,
2013-01-25 13:12:00,49.0,21.0,29.92,WSW,251,17.0,25.0,33,0.00,,,0.00,,2013-01-25 20:12:00,
2013-01-25 13:22:00,49.0,20.0,29.91,WSW,252,16.0,28.0,32,0.00,,,0.00,,2013-01-25 20:22:00,
2013-01-25 13:32:00,49.0,21.0,29.91,WSW,238,17.0,25.0,33,0.00,,,0.00,,2013-01-25 20:32:00,
2013-01-25 13:42:00,49.0,21.0,29.91,WSW,238,17.0,25.0,33,0.00,,,0.00,,2013-01-25 20:42:00,
2013-01-25 13:52:00,50.0,22.0,29.90,SW,224,16.0,20.0,33,0.00,,,0.00,,2013-01-25 20:52:00,
2013-01-25 14:02:00,48.0,22.0,29.90,SW,231,18.0,28.0,36,0.00,,,0.00,,2013-01-25 21:02:00,
2013-01-25 14:11:00,48.0,22.0,29.90,SW,231,18.0,28.0,36,0.00,,,0.00,,2013-01-25 21:11:00,
2013-01-25 14:22:00,48.0,22.0,29.90,SW,231,18.0,28.0,36,0.00,,,0.00,,2013-01-25 21:22:00,
2013-01-25 14:32:00,48.0,22.0,29.90,SW,231,18.0,28.0,36,0.00,,,0.00,,2013-01-25 21:32:00,
2013-01-25 14:42:00,48.0,22.0,29.90,SW,231,18.0,28.0,36,0.00,,,0.00,,2013-01-25 21:42:00,
2013-01-25 15:03:00,46.0,24.0,29.92,SW,227,12.0,25.0,41,0.00,,,0.00,,2013-01-25 22:03:00,
2013-01-25 15:12:00,46.0,24.0,29.92,SW,227,12.0,25.0,41,0.00,,,0.00,,2013-01-25 22:12:00,
2013-01-25 15:22:00,48.0,23.0,29.90,SW,230,14.0,26.0,37,0.00,,,0.00,,2013-01-25 22:22:00,
2013-01-25 15:32:00,48.0,24.0,29.90,SW,225,13.0,26.0,38,0.00,,,0.00,,2013-01-25 22:32:00,
2013-01-25 15:42:00,48.0,24.0,29.90,SW,225,13.0,26.0,38,0.00,,,0.00,,2013-01-25 22:42:00,
2013-01-25 15:52:00,47.0,23.0,29.91,WSW,254,13.0,22.0,39,0.00,,,0.00,,2013-01-25 22:52:00,
2013-01-25 16:02:00,47.0,23.0,29.91,WSW,254,13.0,22.0,39,0.00,,,0.00,,2013-01-25 23:02:00,
2013-01-25 16:11:00,47.0,23.0,29.91,WSW,254,13.0,22.0,39,0.00,,,0.00,,2013-01-25 23:11:00,
2013-01-25 16:22:00,45.0,23.0,29.96,WSW,238,10.0,20.0,42,0.00,,,0.00,,2013-01-25 23:22:00,
2013-01-25 16:32:00,45.0,24.0,29.96,SSW,210,13.0,20.0,43,0.00,,,0.00,,2013-01-25 23:32:00,
2013-01-25 16:42:00,45.0,24.0,29.96,SSW,210,13.0,20.0,43,0.00,,,0.00,,2013-01-25 23:42:00,
2013-01-25 16:53:00,45.0,24.0,29.95,West,262,13.0,24.0,44,0.00,,,0.00,,2013-01-25 23:53:00,
2013-01-25 17:02:00,44.0,24.0,29.96,West,268,12.0,21.0,45,0.00,,,0.00,,2013-01-26 00:02:00,
2013-01-25 17:11:00,44.0,24.0,29.96,West,268,12.0,21.0,45,0.00,,,0.00,,2013-01-26 00:11:00,
2013-01-25 17:22:00,43.0,23.0,29.98,WSW,245,12.0,20.0,45,0.00,,,0.00,,2013-01-26 00:22:00,
2013-01-25 17:32:00,43.0,24.0,29.98,WSW,241,13.0,22.0,47,0.00,,,0.00,,2013-01-26 00:32:00,
2013-01-25 17:42:00,43.0,24.0,29.98,WSW,241,13.0,22.0,47,0.00,,,0.00,,2013-01-26 00:42:00,
2013-01-25 17:53:00,43.0,24.0,29.98,WSW,241,13.0,22.0,47,0.00,,,0.00,,2013-01-26 00:53:00,
2013-01-25 18:01:00,42.0,24.0,29.97,West,273,9.0,16.0,48,0.00,,,0.00,,2013-01-26 01:01:00,
2013-01-25 18:11:00,42.0,24.0,29.97,West,273,9.0,16.0,48,0.00,,,0.00,,2013-01-26 01:11:00,
2013-01-25 18:22:00,42.0,24.0,29.99,WNW,303,6.0,14.0,48,0.00,,,0.00,,2013-01-26 01:22:00,
2013-01-25 18:32:00,42.0,24.0,29.99,WNW,300,3.0,8.0,48,0.00,,,0.00,,2013-01-26 01:32:00,
2013-01-25 18:42:00,42.0,24.0,29.99,WNW,300,3.0,8.0,48,0.00,,,0.00,,2013-01-26 01:42:00,
2013-01-25 18:52:00,42.0,24.0,30.00,WNW,288,2.0,7.0,48,0.00,,,0.00,,2013-01-26 01:52:00,
2013-01-25 19:01:00,42.0,24.0,30.00,WNW,288,2.0,7.0,48,0.00,,,0.00,,2013-01-26 02:01:00,
2013-01-25 19:11:00,42.0,24.0,30.00,WNW,288,2.0,7.0,48,0.00,,,0.00,,2013-01-26 02:11:00,
2013-01-25 19:22:00,42.0,24.0,30.00,West,259,6.0,12.0,49,0.00,,,0.00,,2013-01-26 02:22:00,
2013-01-25 19:32:00,42.0,24.0,30.00,West,261,10.0,18.0,49,0.00,,,0.00,,2013-01-26 02:32:00,
2013-01-25 19:42:00,42.0,24.0,30.00,West,261,10.0,18.0,49,0.00,,,0.00,,2013-01-26 02:42:00,
2013-01-25 19:52:00,42.0,25.0,29.97,SW,228,9.0,21.0,50,0.00,,,0.00,,2013-01-26 02:52:00,
2013-01-25 20:01:00,42.0,25.0,29.97,West,265,7.0,18.0,50,0.00,,,0.00,,2013-01-26 03:01:00,
2013-01-25 20:11:00,42.0,25.0,29.97,West,265,7.0,18.0,50,0.00,,,0.00,,2013-01-26 03:11:00,
2013-01-25 20:21:00,42.0,25.0,29.97,West,264,6.0,14.0,50,0.00,,,0.00,,2013-01-26 03:21:00,
2013-01-25 20:31:00,42.0,25.0,29.97,West,264,6.0,14.0,50,0.00,,,0.00,,2013-01-26 03:31:00,
2013-01-25 20:42:00,42.0,25.0,29.97,West,264,6.0,14.0,50,0.00,,,0.00,,2013-01-26 03:42:00,
2013-01-25 20:51:00,42.0,24.0,29.94,SW,220,14.0,24.0,49,0.00,,,0.00,,2013-01-26 03:51:00,
2013-01-25 21:02:00,42.0,24.0,29.94,West,261,13.0,22.0,48,0.00,,,0.00,,2013-01-26 04:02:00,
2013-01-25 21:12:00,42.0,24.0,29.94,West,261,13.0,22.0,48,0.00,,,0.00,,2013-01-26 04:12:00,
2013-01-25 21:21:00,42.0,24.0,29.94,West,261,13.0,22.0,48,0.00,,,0.00,,2013-01-26 04:21:00,
2013-01-25 21:32:00,42.0,24.0,29.94,West,261,13.0,22.0,48,0.00,,,0.00,,2013-01-26 04:32:00,
2013-01-25 21:42:00,42.0,24.0,29.94,West,261,13.0,22.0,48,0.00,,,0.00,,2013-01-26 04:42:00,
2013-01-25 21:52:00,42.0,23.0,29.94,WSW,242,6.0,18.0,47,0.00,,,0.00,,2013-01-26 04:52:00,
2013-01-25 22:03:00,42.0,23.0,29.94,WSW,242,6.0,18.0,47,0.00,,,0.00,,2013-01-26 05:03:00,
2013-01-25 22:12:00,42.0,23.0,29.94,WSW,242,6.0,18.0,47,0.00,,,0.00,,2013-01-26 05:12:00,
2013-01-25 22:23:00,42.0,23.0,29.94,WSW,254,3.0,8.0,47,0.00,,,0.00,,2013-01-26 05:23:00,
2013-01-25 22:33:00,42.0,23.0,29.94,WSW,254,3.0,8.0,47,0.00,,,0.00,,2013-01-26 05:33:00,
2013-01-25 22:41:00,42.0,23.0,29.94,WSW,254,3.0,8.0,47,0.00,,,0.00,,2013-01-26 05:41:00,
2013-01-25 22:52:00,41.0,23.0,29.91,WSW,245,5.0,12.0,48,0.00,,,0.00,,2013-01-26 05:52:00,
2013-01-25 23:02:00,42.0,23.0,29.91,WSW,238,7.0,17.0,47,0.00,,,0.00,,2013-01-26 06:02:00,
2013-01-25 23:12:00,42.0,23.0,29.91,WSW,238,7.0,17.0,47,0.00,,,0.00,,2013-01-26 06:12:00,
2013-01-25 23:21:00,42.0,23.0,29.91,SSW,208,8.0,13.0,47,0.00,,,0.00,,2013-01-26 06:21:00,
2013-01-25 23:31:00,42.0,23.0,29.91,WSW,247,6.0,12.0,47,0.00,,,0.00,,2013-01-26 06:31:00,
2013-01-25 23:41:00,42.0,23.0,29.91,WSW,247,6.0,12.0,47,0.00,,,0.00,,2013-01-26 06:41:00,
2013-01-25 23:52:00,41.0,23.0,29.88,ENE,62,2.0,10.0,48,0.00,,,0.00,,2013-01-26 06:52:00,